Sand Point, AK

11:43 PM AKDT on June 24, 2017 (GMT -0800)
Sand Point

Weather History for PASD - October, 2011

Change the Weather History Date:

Monday, October 31, 2011

  Actual Average Record
Temperature  
Mean Temperature 38 °F -  
Max Temperature 42 °F 41 °F 50 °F (1984)
Min Temperature 35 °F 35 °F 25 °F (1985)
Degree Days  
Heating Degree Days 26    
Moisture  
Dew Point 33 °F    
Average Humidity 77    
Maximum Humidity 100    
Minimum Humidity 57    
Precipitation  
Precipitation 0.00 in - - ()
Sea Level Pressure  
Sea Level Pressure 29.65 in    
Wind  
Wind Speed 12 mph (SW)    
Max Wind Speed 22 mph    
Max Gust Speed 32 mph    
Visibility 10 miles    
Events      
Averages and records for this station are not official NWS values.
T = Trace of Precipitation, MM = Missing Value Source: NWS Daily Summary

Daily Weather History Graph

Daily Weather History Graph

Search for Another Location

Airport or City:

Trip Planner

Search our weather history database for the weather conditions in past years. The results will help you decide how hot, cold, wet, or windy it might be!

Date:

Astronomy

Oct. 31, 2011 Rise Set
Actual Time 9:44 AM AKDT 7:05 PM AKDT
Civil Twilight 9:05 AM AKDT 7:44 PM AKDT
Nautical Twilight 8:22 AM AKDT 8:27 PM AKDT
Astronomical Twilight 7:40 AM AKDT 9:09 PM AKDT
Moon 3:21 PM AKDT (10/31) 11:36 PM AKDT (10/31)
Length of Visible Light 10h 38m
Length of Day
9h 21m
Waxing Crescent, 31% of the Moon is Illuminated
Oct 31
Waxing Crescent
Nov 2
First Quarter
Nov 10
Full
Nov 18
Last Quarter
Nov 24
New

Hourly Weather History & Observations

Time (AKDT) Temp. Windchill Dew Point Humidity Pressure Visibility Wind Dir Wind Speed Gust Speed Precip Events Conditions
12:16 AM 42.8 °F 34.5 °F 28.4 °F 57% 29.65 in 10.0 mi WSW 18.4 mph 28.8 mph N/A   Clear
12:36 AM 42.8 °F 34.0 °F 28.4 °F 57% 29.65 in 10.0 mi WSW 20.7 mph 29.9 mph N/A   Clear
12:56 AM 42.8 °F 33.8 °F 28.4 °F 57% 29.66 in 10.0 mi WSW 21.9 mph 32.2 mph N/A   Clear
1:16 AM 42.8 °F 34.0 °F 28.4 °F 57% 29.66 in 10.0 mi WSW 20.7 mph 27.6 mph N/A   Clear
1:36 AM 42.8 °F 35.1 °F 30.2 °F 61% 29.67 in 10.0 mi SW 16.1 mph 20.7 mph N/A   Clear
1:56 AM 42.8 °F 34.5 °F 30.2 °F 61% 29.67 in 10.0 mi SW 18.4 mph 27.6 mph N/A   Clear
2:16 AM 42.8 °F 34.5 °F 30.2 °F 61% 29.68 in 10.0 mi WSW 18.4 mph - N/A   Clear
2:36 AM 42.8 °F 35.1 °F 30.2 °F 61% 29.69 in 10.0 mi SW 16.1 mph - N/A   Clear
2:56 AM 42.8 °F 34.8 °F 30.2 °F 61% 29.68 in 10.0 mi SW 17.3 mph 20.7 mph N/A   Clear
3:16 AM 42.8 °F 35.8 °F 30.2 °F 61% 29.69 in 10.0 mi WSW 13.8 mph - N/A   Clear
3:36 AM 42.8 °F 35.8 °F 30.2 °F 61% 29.69 in 10.0 mi WSW 13.8 mph - N/A   Partly Cloudy
3:56 AM 41.0 °F 33.1 °F 33.8 °F 76% 29.69 in 10.0 mi SSW 15.0 mph - N/A   Mostly Cloudy
4:16 AM 39.2 °F 33.6 °F 33.8 °F 81% 29.69 in 10.0 mi SW 8.1 mph - N/A   Scattered Clouds
4:36 AM 42.8 °F 36.2 °F 32.0 °F 66% 29.68 in 10.0 mi SW 12.7 mph 19.6 mph N/A   Clear
4:56 AM 42.8 °F 36.2 °F 33.8 °F 70% 29.68 in 10.0 mi SSW 12.7 mph - N/A   Mostly Cloudy
5:16 AM 41.0 °F 33.5 °F 33.8 °F 76% 29.68 in 10.0 mi SW 13.8 mph - N/A   Mostly Cloudy
5:36 AM 42.8 °F 34.8 °F 33.8 °F 70% 29.67 in 10.0 mi SW 17.3 mph 20.7 mph N/A   Clear
5:56 AM 42.8 °F 35.4 °F 33.8 °F 70% 29.67 in 10.0 mi SW 15.0 mph - N/A   Scattered Clouds
6:16 AM 42.8 °F 36.2 °F 33.8 °F 70% 29.67 in 10.0 mi SSW 12.7 mph 20.7 mph N/A   Scattered Clouds
6:36 AM 42.8 °F 37.5 °F 32.0 °F 66% 29.67 in 10.0 mi SW 9.2 mph - N/A   Mostly Cloudy
6:56 AM 42.8 °F 38.6 °F 32.0 °F 66% 29.67 in 10.0 mi SSW 6.9 mph - N/A   Mostly Cloudy
7:16 AM 42.8 °F 38.6 °F 33.8 °F 70% 29.67 in 10.0 mi South 6.9 mph - N/A   Mostly Cloudy
7:36 AM 42.8 °F 37.0 °F 33.8 °F 70% 29.66 in 9.0 mi SSW 10.4 mph 21.9 mph N/A   Mostly Cloudy
7:56 AM 41.0 °F 35.8 °F 33.8 °F 76% 29.67 in 10.0 mi West 8.1 mph - N/A   Mostly Cloudy
8:16 AM 39.2 °F 35.9 °F 33.8 °F 81% 29.66 in 10.0 mi NNW 4.6 mph - N/A   Mostly Cloudy
8:36 AM 37.4 °F - 33.8 °F 87% 29.67 in 10.0 mi Calm Calm - N/A   Mostly Cloudy
8:56 AM 37.4 °F 33.8 °F 32.0 °F 81% 29.66 in 10.0 mi SW 4.6 mph - N/A   Mostly Cloudy
9:16 AM 39.2 °F 37.0 °F 32.0 °F 75% 29.66 in 10.0 mi SE 3.5 mph - N/A   Mostly Cloudy
9:36 AM 37.4 °F 32.8 °F 32.0 °F 81% 29.66 in 10.0 mi SSE 5.8 mph - N/A   Mostly Cloudy
9:56 AM 37.4 °F 32.1 °F 33.8 °F 87% 29.65 in 10.0 mi South 6.9 mph - N/A   Mostly Cloudy
10:16 AM 37.4 °F 32.8 °F 33.8 °F 87% 29.65 in 10.0 mi South 5.8 mph - N/A   Mostly Cloudy
10:36 AM 37.4 °F 32.8 °F 33.8 °F 87% 29.65 in 10.0 mi SSE 5.8 mph - N/A   Mostly Cloudy
10:56 AM 37.4 °F 32.1 °F 35.6 °F 93% 29.65 in 10.0 mi WSW 6.9 mph - N/A   Mostly Cloudy
11:16 AM 37.4 °F 32.1 °F 35.6 °F 93% 29.66 in 5.0 mi WNW 6.9 mph 19.6 mph N/A   Overcast
11:36 AM 35.6 °F 32.8 °F 35.6 °F 100% 29.65 in 10.0 mi East 3.5 mph - N/A   Mostly Cloudy
11:56 AM 35.6 °F 31.7 °F 35.6 °F 100% 29.65 in 10.0 mi ENE 4.6 mph - N/A   Mostly Cloudy
12:16 PM 37.4 °F 30.8 °F 35.6 °F 93% 29.65 in 10.0 mi South 9.2 mph - N/A   Mostly Cloudy
12:36 PM 37.4 °F 32.8 °F 35.6 °F 93% 29.65 in 4.0 mi West 5.8 mph - N/A   Overcast
12:56 PM 37.4 °F 30.8 °F 33.8 °F 87% 29.66 in 2.0 mi West 9.2 mph - N/A   Overcast
1:16 PM 35.6 °F 32.8 °F 33.8 °F 93% 29.65 in 10.0 mi NNE 3.5 mph - N/A   Mostly Cloudy
1:36 PM 37.4 °F - 35.6 °F 93% 29.65 in 10.0 mi Calm Calm - N/A   Mostly Cloudy
1:56 PM 39.2 °F 37.0 °F 35.6 °F 87% 29.64 in 10.0 mi NNE 3.5 mph - N/A   Mostly Cloudy
2:16 PM 37.4 °F 33.8 °F 35.6 °F 93% 29.63 in 10.0 mi East 4.6 mph - N/A   Mostly Cloudy
2:36 PM 37.4 °F 34.9 °F 33.8 °F 87% 29.62 in 10.0 mi East 3.5 mph - N/A   Mostly Cloudy
2:56 PM 39.2 °F 35.9 °F 33.8 °F 81% 29.62 in 10.0 mi NNE 4.6 mph - N/A   Mostly Cloudy
3:16 PM 39.2 °F - 33.8 °F 81% 29.62 in 10.0 mi Calm Calm - N/A   Mostly Cloudy
3:36 PM 41.0 °F - 33.8 °F 76% 29.61 in 10.0 mi Calm Calm - N/A   Mostly Cloudy
3:56 PM 39.2 °F - 33.8 °F 81% 29.61 in 10.0 mi Calm Calm - N/A   Mostly Cloudy
4:16 PM 41.0 °F - 33.8 °F 76% 29.60 in 10.0 mi Calm Calm - N/A   Mostly Cloudy
4:36 PM 39.2 °F 37.0 °F 33.8 °F 81% 29.60 in 10.0 mi SSE 3.5 mph - N/A   Mostly Cloudy
4:56 PM 41.0 °F - 33.8 °F 76% 29.60 in 10.0 mi Calm Calm - N/A   Mostly Cloudy
5:16 PM 39.2 °F - 33.8 °F 81% 29.60 in 10.0 mi Calm Calm - N/A   Mostly Cloudy
5:36 PM 39.2 °F 37.0 °F 33.8 °F 81% 29.60 in 10.0 mi South 3.5 mph - N/A   Mostly Cloudy
5:56 PM 39.2 °F - 35.6 °F 87% 29.60 in 10.0 mi Calm Calm - N/A   Mostly Cloudy
6:16 PM 39.2 °F - 33.8 °F 81% 29.60 in 10.0 mi Calm Calm - N/A   Mostly Cloudy
6:36 PM 39.2 °F 34.2 °F 33.8 °F 81% 29.60 in 10.0 mi West 6.9 mph - N/A   Mostly Cloudy
6:56 PM 39.2 °F - 32.0 °F 75% 29.60 in 10.0 mi Calm Calm - N/A   Mostly Cloudy
7:16 PM 37.4 °F - 32.0 °F 81% 29.59 in 10.0 mi Calm Calm - N/A   Mostly Cloudy
7:36 PM 35.6 °F - 30.2 °F 81% 29.60 in 10.0 mi Calm Calm - N/A   Mostly Cloudy
7:56 PM 33.8 °F - 30.2 °F 87% 29.60 in 10.0 mi Calm Calm - N/A   Mostly Cloudy
8:16 PM 33.8 °F - 32.0 °F 93% 29.60 in 10.0 mi Calm Calm - N/A   Clear
8:36 PM 33.8 °F - 32.0 °F 93% 29.61 in 10.0 mi Calm Calm - N/A   Clear
8:56 PM 33.8 °F - 32.0 °F 93% 29.61 in 10.0 mi Calm Calm - N/A   Clear
9:16 PM 33.8 °F 30.8 °F 33.8 °F 100% 29.61 in 10.0 mi NW 3.5 mph - N/A   Clear
9:36 PM 33.8 °F 29.6 °F 33.8 °F 100% 29.62 in 10.0 mi NW 4.6 mph - N/A   Clear
9:56 PM 33.8 °F - 33.8 °F 100% 29.62 in 10.0 mi Calm Calm - N/A   Clear
10:16 PM 33.8 °F 30.8 °F 33.8 °F 100% 29.62 in 10.0 mi NW 3.5 mph - N/A   Clear
10:36 PM 35.6 °F - 33.8 °F 93% 29.63 in 10.0 mi Calm Calm - N/A   Clear
10:56 PM 33.8 °F - 33.8 °F 100% 29.63 in 10.0 mi Calm Calm - N/A   Clear
11:16 PM 33.8 °F - 33.8 °F 100% 29.63 in 10.0 mi Calm Calm - N/A   Clear
11:36 PM 33.8 °F 28.6 °F 33.8 °F 100% 29.64 in 10.0 mi NW 5.8 mph - N/A   Clear
11:56 PM 35.6 °F - 33.8 °F 93% 29.64 in 10.0 mi Calm Calm - N/A   Clear